{"data":{"norad_id":63348,"intl_designator":"2025-059E","name":"YUNYAO-1 47","alt_names":[],"object_type":"PAYLOAD","status":"ACTIVE","operator":null,"country":"PRC","launch_date":"2025-03-21","launch_site_code":"JSC","launch_vehicle":null,"mission":null,"orbit_class":"UNKNOWN","rcs_meters":null,"size_class":null,"mass_kg":null,"dimensions":null,"purposes":[],"wikipedia_slug":null,"has_3d_model":false,"image_url":null,"decayed_at":null,"tle_current":{"epoch":"2026-05-25T04:21:26.237088Z","epoch_age_seconds":59681,"freshness":"FRESH","line1":"1 63348U 25059E   26145.18155367  .00003342  00000+0  20347-3 0  9999","line2":"2 63348  97.6091 326.7080 0014803 233.8780 126.1080 15.11024394 64829","mean_motion":15.11024394,"eccentricity":0.0014803,"inclination_deg":97.6091,"raan_deg":326.708,"arg_perigee_deg":233.878,"mean_anomaly_deg":126.108,"bstar":0.00020347,"rev_number":6482,"period_min":95.299586539964,"perigee_km":522.84394867609,"apogee_km":543.30528178414,"semimajor_km":6911.2116152301,"source":"CELESTRAK","updated_at":"2026-05-25T13:38:03.657796Z"}}}